Regional Weather Roundup
Issued by NWS

Home | Current Version | Previous Version | Graphics & Text | Print | Product List | Glossary On
Versions: 1 2 3 4 5 6 7 8 9 10 11 12 13 14 15 16 17 18 19 20 21 22 23 24 25 26 27
000
ASUS45 KCYS 270810
RWRWY

WYOMING REGIONAL WEATHER ROUNDUP
NATIONAL WEATHER SERVICE CHEYENNE WY
100 AM MST MON FEB 27 2017

NOTE:  "FAIR" INDICATES FEW OR NO CLOUDS BELOW 12,000 FEET
WITH NO SIGNIFICANT WEATHER AND/OR OBSTRUCTIONS TO VISIBILITY.

WYZ001-270900-
YELLOWSTONE NATIONAL PARK

CITY           SKY/WX    TMP DP  RH WIND       PRES   REMARKS
LK YELLOWSTONE   N/A      9   7  92 CALM      29.51F
W YELLOWSTONE  NOT AVBL

$$
WYZ002>013-054>058-071-098>099-270900-
NORTHERN WYOMING

CITY           SKY/WX    TMP DP  RH WIND       PRES   REMARKS
JACKSON        CLOUDY    16  16 100 SW13      29.57F WCI   2
CODY           FAIR      20   8  60 SE8       29.57F WCI  10
GREYBULL       FAIR      27  13  55 E8        29.62F WCI  19
WORLAND        FAIR      18  12  77 E7        29.61F WCI   9
SHERIDAN       FAIR      23  12  62 SE7       29.59F WCI  15
BUFFALO        FAIR      19   5  54 SW5       29.57F WCI  12
GILLETTE       MOCLDY    24  11  57 SW7       29.61F WCI  16
HULETT         CLOUDY    27  12  54 S12       29.64F WCI  16
NEWCASTLE      FAIR      21  12  68 SE13      29.70F WCI   9

$$
WYZ014>020-022>026-101>103-270900-
CENTRAL WYOMING

CITY           SKY/WX    TMP DP  RH WIND       PRES   REMARKS
BIG PINEY      LGT SNOW   8   5  87 N6        29.62F WCI  -2
PINEDALE       LGT SNOW  10  10 100 NE3       29.62F VSB 1
DUBOIS         CLOUDY    12   7  79 NW12      29.52S WCI  -2
LANDER         FAIR       9   0  67 SE6       29.59F WCI  -1
RIVERTON       FAIR       8   4  83 W8        29.60F WCI  -4
CASPER         FAIR      20   8  60 SW10G22   29.65R WCI   9
DOUGLAS        FAIR      18   8  65 S8        29.67F WCI   8

$$
WYZ021-027>030-104>119-270900-
SOUTHERN WYOMING

CITY           SKY/WX    TMP DP  RH WIND       PRES   REMARKS
EVANSTON       MOCLDY    24  17  74 SW23      29.55F WCI   9
FORT BRIDGER   PTSUNNY   14   6  69 CALM      29.62F
ROCK SPRINGS   CLOUDY    12   2  64 N6        29.62F WCI   3
DIXON            N/A     29   9  43 S20       29.70F WCI  16
RAWLINS        FAIR      20   7  57 W14       29.63F WCI   7
SARATOGA       FAIR      18   9  68 SW10G17   29.65F WCI   6
LARAMIE        FAIR      21   4  47 SW13      29.64F WCI   9
CHEYENNE       FAIR      12   6  77 W7        29.70F WCI   1
TORRINGTON     FAIR      11   4  73 E9        29.75F WCI  -2
PINE BLUFFS    FAIR      18   9  68 S6        29.75F WCI   9

$$




USA.gov is the U.S. government's official web portal to all federal, state and local government web resources and services.